When you browse on this site, cookies collect data to enhance your experience and personalize the content and advertising you see.
Visit our Privacy Policy to learn more. By continuing to use the site, you agree to this use of cookies and data.
  • en Suisse
  • Liste des pays
  • À 7 jours
  • Température de l'eau
  • Carte satellitaire
  • Carte météo
  • Widgets météo
  • user-avatar
    Se connecter

    Météo par heure à Xinzhan

    Ce jour, 26 Mai, Dimanche

    Heure Température Précipitation Vent Pression Humidité
    00:00 +22°C° 0.5 mm 0 m/s 705 mmHg 94%
    01:00 +21°C° 0 mm 0 m/s 705 mmHg 94%
    02:00 +21°C° 0 mm 0 m/s 705 mmHg 94%
    03:00 +21°C° 0 mm 0 m/s 705 mmHg 94%
    04:00 +23°C° 0 mm 1 m/s 705 mmHg 95%
    05:00 +24°C° 0 mm 1 m/s 706 mmHg 92%
    06:00 +25°C° 0 mm 1 m/s 707 mmHg 89%
    07:00 +27°C° 0 mm 1 m/s 707 mmHg 83%
    08:00 +28°C° 0 mm 1 m/s 708 mmHg 78%
    09:00 +29°C° 0 mm 2 m/s 708 mmHg 72%
    10:00 +30°C° 0 mm 2 m/s 708 mmHg 67%
    11:00 +31°C° 0 mm 2 m/s 707 mmHg 66%
    12:00 +31°C° 0 mm 2 m/s 707 mmHg 65%
    13:00 +31°C° 0 mm 3 m/s 707 mmHg 66%
    14:00 +31°C° 0.1 mm 3 m/s 707 mmHg 67%
    15:00 +30°C° 0.1 mm 3 m/s 707 mmHg 67%
    16:00 +30°C° 0.1 mm 3 m/s 707 mmHg 68%
    17:00 +29°C° 0 mm 2 m/s 707 mmHg 74%
    18:00 +28°C° 0 mm 2 m/s 707 mmHg 79%
    19:00 +26°C° 0 mm 1 m/s 707 mmHg 85%
    20:00 +26°C° 0 mm 1 m/s 707 mmHg 87%
    21:00 +25°C° 0 mm 1 m/s 708 mmHg 89%
    22:00 +25°C° 0 mm 1 m/s 708 mmHg 90%
    23:00 +23°C° 0.4 mm 0 m/s 708 mmHg 91%

    Demain, 27 Mai, Lundi

    Heure Température Précipitation Vent Pression Humidité
    00:00 +22°C° 0.4 mm 0 m/s 708 mmHg 91%
    01:00 +22°C° 0.4 mm 0 m/s 708 mmHg 92%
    02:00 +22°C° 0.1 mm 0 m/s 708 mmHg 92%
    03:00 +22°C° 0.1 mm 0 m/s 708 mmHg 92%
    04:00 +22°C° 0.1 mm 0 m/s 708 mmHg 92%
    05:00 +23°C° 0 mm 0 m/s 709 mmHg 88%
    06:00 +26°C° 0 mm 1 m/s 709 mmHg 84%
    07:00 +27°C° 0 mm 1 m/s 710 mmHg 81%
    08:00 +28°C° 0 mm 2 m/s 710 mmHg 73%
    09:00 +30°C° 0 mm 3 m/s 710 mmHg 66%
    10:00 +32°C° 0 mm 4 m/s 711 mmHg 59%
    11:00 +32°C° 0.7 mm 4 m/s 711 mmHg 61%
    12:00 +32°C° 0.7 mm 4 m/s 710 mmHg 63%
    13:00 +32°C° 0.7 mm 4 m/s 710 mmHg 65%
    14:00 +30°C° 1 mm 4 m/s 710 mmHg 69%
    15:00 +29°C° 1 mm 3 m/s 710 mmHg 73%
    16:00 +28°C° 1 mm 2 m/s 710 mmHg 77%
    17:00 +27°C° 0.6 mm 2 m/s 711 mmHg 80%
    18:00 +26°C° 0.6 mm 2 m/s 711 mmHg 83%
    19:00 +25°C° 0.6 mm 1 m/s 711 mmHg 86%
    20:00 +24°C° 0 mm 1 m/s 712 mmHg 85%
    21:00 +24°C° 0 mm 1 m/s 713 mmHg 85%
    22:00 +23°C° 0 mm 1 m/s 714 mmHg 84%
    23:00 +23°C° 0 mm 1 m/s 714 mmHg 83%

    Après-demain, 28 Mai, Mardi

    Heure Température Précipitation Vent Pression Humidité
    00:00 +22°C° 0 mm 1 m/s 713 mmHg 82%
    01:00 +21°C° 0 mm 1 m/s 713 mmHg 82%
    02:00 +21°C° 0 mm 1 m/s 713 mmHg 82%
    03:00 +20°C° 0 mm 1 m/s 713 mmHg 83%
    04:00 +20°C° 0 mm 1 m/s 713 mmHg 83%
    05:00 +21°C° 0 mm 1 m/s 713 mmHg 78%
    06:00 +22°C° 0 mm 1 m/s 714 mmHg 73%
    07:00 +23°C° 0 mm 1 m/s 714 mmHg 68%
    08:00 +24°C° 0 mm 2 m/s 715 mmHg 62%
    09:00 +25°C° 0 mm 2 m/s 715 mmHg 56%
    10:00 +26°C° 0 mm 2 m/s 715 mmHg 49%
    11:00 +26°C° 0 mm 2 m/s 715 mmHg 51%
    12:00 +27°C° 0 mm 2 m/s 715 mmHg 52%
    13:00 +27°C° 0 mm 2 m/s 714 mmHg 53%
    14:00 +26°C° 0.5 mm 2 m/s 714 mmHg 61%
    15:00 +24°C° 0.5 mm 2 m/s 713 mmHg 69%
    16:00 +23°C° 0.5 mm 2 m/s 712 mmHg 77%
    17:00 +23°C° 0.6 mm 1 m/s 713 mmHg 82%
    18:00 +22°C° 0.6 mm 1 m/s 713 mmHg 86%
    19:00 +21°C° 0.6 mm 1 m/s 713 mmHg 91%
    20:00 +21°C° 0.4 mm 1 m/s 714 mmHg 91%
    21:00 +21°C° 0.4 mm 1 m/s 714 mmHg 92%
    22:00 +21°C° 0.4 mm 1 m/s 715 mmHg 93%
    23:00 +21°C° 0.2 mm 1 m/s 714 mmHg 93%

    29 Mai, Mercredi

    Heure Température Précipitation Vent Pression Humidité
    00:00 +21°C° 0.2 mm 1 m/s 714 mmHg 92%
    01:00 +21°C° 0.2 mm 1 m/s 713 mmHg 92%
    02:00 +20°C° 0.1 mm 1 m/s 713 mmHg 91%
    03:00 +20°C° 0.1 mm 1 m/s 712 mmHg 90%
    04:00 +20°C° 0.1 mm 1 m/s 712 mmHg 89%
    05:00 +20°C° 0 mm 1 m/s 712 mmHg 84%
    06:00 +21°C° 0 mm 1 m/s 712 mmHg 79%
    07:00 +21°C° 0 mm 1 m/s 713 mmHg 74%
    08:00 +21°C° 0 mm 2 m/s 713 mmHg 67%
    09:00 +24°C° 0 mm 2 m/s 713 mmHg 61%
    10:00 +25°C° 0 mm 2 m/s 713 mmHg 55%
    11:00 +25°C° 0 mm 2 m/s 712 mmHg 56%
    12:00 +26°C° 0 mm 2 m/s 712 mmHg 57%
    13:00 +26°C° 0 mm 2 m/s 711 mmHg 58%
    14:00 +26°C° 0 mm 2 m/s 710 mmHg 62%
    15:00 +26°C° 0 mm 2 m/s 710 mmHg 65%
    16:00 +26°C° 0 mm 1 m/s 709 mmHg 69%
    17:00 +25°C° 0.1 mm 1 m/s 709 mmHg 73%
    18:00 +24°C° 0.1 mm 1 m/s 709 mmHg 77%
    19:00 +23°C° 0.1 mm 1 m/s 709 mmHg 82%
    20:00 +23°C° 0.1 mm 1 m/s 710 mmHg 83%
    21:00 +23°C° 0.1 mm 1 m/s 711 mmHg 84%
    22:00 +22°C° 0.1 mm 1 m/s 711 mmHg 86%
    23:00 +22°C° 0.1 mm 1 m/s 711 mmHg 87%

    30 Mai, Jeudi

    Heure Température Précipitation Vent Pression Humidité
    00:00 +22°C° 0.1 mm 1 m/s 711 mmHg 88%
    01:00 +22°C° 0.1 mm 1 m/s 710 mmHg 89%
    02:00 +22°C° 0.5 mm 1 m/s 710 mmHg 90%
    03:00 +22°C° 0.5 mm 1 m/s 710 mmHg 92%
    04:00 +22°C° 0.5 mm 1 m/s 710 mmHg 94%
    05:00 +21°C° 1 mm 1 m/s 711 mmHg 95%
    06:00 +21°C° 1 mm 1 m/s 711 mmHg 95%
    07:00 +21°C° 1 mm 1 m/s 711 mmHg 96%
    08:00 +22°C° 0.2 mm 1 m/s 712 mmHg 95%
    09:00 +22°C° 0.2 mm 1 m/s 712 mmHg 94%
    10:00 +22°C° 0.2 mm 1 m/s 712 mmHg 93%
    11:00 +22°C° 0.1 mm 1 m/s 712 mmHg 91%
    12:00 +23°C° 0.1 mm 1 m/s 711 mmHg 90%
    13:00 +23°C° 0.1 mm 1 m/s 711 mmHg 88%
    14:00 +24°C° 0.1 mm 1 m/s 710 mmHg 85%
    15:00 +24°C° 0.1 mm 1 m/s 710 mmHg 83%
    16:00 +25°C° 0.1 mm 1 m/s 710 mmHg 80%
    17:00 +24°C° 0 mm 1 m/s 710 mmHg 84%
    18:00 +24°C° 0 mm 1 m/s 710 mmHg 87%
    19:00 +23°C° 0 mm 1 m/s 710 mmHg 91%
    20:00 +20°C° 0 mm 0 m/s 710 mmHg 92%
    21:00 +20°C° 0 mm 0 m/s 711 mmHg 94%
    22:00 +19°C° 0 mm 0 m/s 711 mmHg 95%
    23:00 +20°C° 0.1 mm 0 m/s 711 mmHg 94%

    31 Mai, Vendredi

    Heure Température Précipitation Vent Pression Humidité
    00:00 +20°C° 0.1 mm 0 m/s 711 mmHg 94%
    01:00 +20°C° 0.1 mm 0 m/s 711 mmHg 93%
    02:00 +20°C° 0.3 mm 0 m/s 711 mmHg 94%
    03:00 +20°C° 0.3 mm 0 m/s 710 mmHg 95%
    04:00 +22°C° 0.3 mm 1 m/s 710 mmHg 96%
    05:00 +22°C° 0.3 mm 1 m/s 711 mmHg 96%
    06:00 +22°C° 0.3 mm 1 m/s 711 mmHg 96%
    07:00 +22°C° 0.3 mm 1 m/s 712 mmHg 96%
    08:00 +22°C° 0.2 mm 1 m/s 711 mmHg 95%
    09:00 +22°C° 0.2 mm 1 m/s 711 mmHg 94%
    10:00 +22°C° 0.2 mm 1 m/s 711 mmHg 93%
    11:00 +22°C° 0.2 mm 1 m/s 711 mmHg 93%
    12:00 +22°C° 0.2 mm 1 m/s 710 mmHg 93%
    13:00 +22°C° 0.2 mm 1 m/s 710 mmHg 92%
    14:00 +23°C° 0.1 mm 1 m/s 709 mmHg 89%
    15:00 +22°C° 0.1 mm 0 m/s 709 mmHg 86%
    16:00 +22°C° 0.1 mm 0 m/s 708 mmHg 83%
    17:00 +22°C° 0 mm 0 m/s 709 mmHg 85%
    18:00 +23°C° 0 mm 1 m/s 709 mmHg 87%
    19:00 +22°C° 0 mm 1 m/s 709 mmHg 89%
    20:00 +22°C° 0 mm 1 m/s 709 mmHg 90%
    21:00 +19°C° 0 mm 0 m/s 709 mmHg 91%
    22:00 +19°C° 0 mm 0 m/s 710 mmHg 92%
    23:00 +19°C° 0 mm 0 m/s 709 mmHg 91%
    Voir plus